Location: Bernay
(48.6766°N, 2.9386°E)
Time: 22:16:50
(UTC+00:00)

Meteor 2-15 Rocket - Pass Details

Date: 12 January 2026
Orbit: 939 x 956 km, 82.5° (Epoch: 18 February)

Event Time Altitude Azimuth Distance (km) Brightness Sun altitude
Rises 18:13:46 0° 352° (N) 3,647 7.5 -18.8°
Reaches altitude 10° 18:16:20 10° 356° (N) 2,696 6.7 -19.2°
Maximum altitude 18:22:26 62° 77° (ENE) 1,069 4.4 -20.2°
Drops below altitude 10° 18:28:29 10° 157° (SSE) 2,668 6.7 -21.1°
Sets 18:31:00 0° 161° (SSE) 3,607 7.4 -21.6°
